sat.trackr.live / text

‹ back to catalog

STARLINK-37679

NORAD 69229 · 2026-115U

PAYLOAD ACTIVE UNKNOWN

§ Identity

Operator
Country
US
Launch date
2026-05-26
Launch site
AFWTR
Launch vehicle
Mass (kg)
RCS (m²)

Purposes: comms

External: N2YO · Heavens-Above · Gunter

§ Orbital elements

Epoch: 2026-09-19T23:39:41.843808Z

Period
93.90 min
Inclination
97.2843°
Eccentricity
0.0000268
Mean motion
15.33471530 rev/d
Perigee alt
465.3 km
Apogee alt
465.6 km
Semi-major
6,843.6 km
B*
7.3077e-4
RAAN
279.1168°
Arg perigee
346.8132°
Mean anomaly
13.3104°
Rev number
1,921

§ Raw data

STARLINK-376791 69229U 26115U   26262.98590097  .00023610  00000+0  73077-3 0  99962 69229  97.2843 279.1168 0000268 346.8132  13.3104 15.33471530 19217

JSON: /api/v1/satellites/69229 · /tle

For live sub-satellite position, see the globe view (requires WebGL).

§ Visibility from observer

Set your observer location to see the next 7 days of passes ≥ 10°. The values pass through the URL so the page stays shareable.

No JS? Fill the form by hand. The geolocation button needs JavaScript.